This demonstration page uses our WeatherBlox Daily Observations layout. Learn more.

Left ArrowRight Arrow

Hourly Observations for October 22, 2021

Temp ( °F °C ) Dew Point ( °F °C ) Humidity (%) Winds ( mph kmh ) Pressure ( in mb ) Visibility ( mi km ) Precip ( " mm )
12:15 am 00:15 Clear 66 19 59 15 78 78 N N/A 29.84 1011 10 16 N/A
12:35 am 00:35 Clear 66 19 59 15 78 78 S 6 9 29.83 1010 10 16 N/A
12:55 am 00:55 Clear 64 18 59 15 83 83 SSW 6 9 29.84 1011 10 16 N/A
1:15 am 01:15 Mostly Cloudy 64 18 59 15 83 83 WNW 13 20 29.86 1011 10 16 N/A
1:35 am 01:35 Cloudy 66 19 61 16 83 83 WNW 12 19 29.86 1011 10 16 N/A
1:55 am 01:55 Cloudy 64 18 61 16 88 88 WNW 10 17 29.87 1012 10 16 N/A
2:15 am 02:15 Cloudy 64 18 61 16 88 88 WNW 8 13 29.87 1012 10 16 N/A
2:35 am 02:35 Cloudy 64 18 61 16 88 88 W 6 9 29.88 1012 10 16 N/A
2:55 am 02:55 Mostly Cloudy 64 18 59 15 83 83 N N/A 29.88 1012 10 16 N/A
3:15 am 03:15 Mostly Cloudy 63 17 59 15 88 88 WNW 7 11 29.89 1012 10 16 N/A
3:35 am 03:35 Cloudy 63 17 61 16 94 94 WNW 6 9 29.89 1012 10 16 N/A
3:55 am 03:55 Cloudy 64 18 61 16 88 88 WNW 8 13 29.88 1012 10 16 N/A
4:15 am 04:15 Cloudy 64 18 59 15 83 83 WNW 12 19 29.88 1012 10 16 N/A
4:35 am 04:35 Cloudy 64 18 55 13 73 73 WNW 10 17 29.89 1012 10 16 N/A
4:55 am 04:55 Cloudy 64 18 55 13 73 73 WNW 12 19 29.89 1012 10 16 N/A
5:15 am 05:15 Cloudy 63 17 54 12 73 73 NW 17 28 29.91 1013 10 16 N/A
5:35 am 05:35 Cloudy 63 17 52 11 68 68 NW 16 26 29.91 1013 10 16 N/A
5:55 am 05:55 Partly Cloudy 61 16 52 11 72 72 NNW 10 17 29.93 1013 10 16 N/A
6:15 am 06:15 Partly Cloudy 59 15 52 11 77 77 NNW 10 17 29.93 1013 10 16 N/A
6:35 am 06:35 Clear 59 15 50 10 72 72 NW 8 13 29.94 1014 10 16 N/A
6:55 am 06:55 Clear 57 14 50 10 77 77 NW 8 13 29.94 1014 10 16 N/A
7:15 am 07:15 Clear 57 14 50 10 77 77 NW 8 13 29.95 1014 10 16 N/A
7:35 am 07:35 Sunny 55 13 48 9 77 77 NW 12 19 29.96 1015 10 16 N/A
7:55 am 07:55 Sunny 55 13 48 9 77 77 NW 12 19 29.96 1015 10 16 N/A
8:15 am 08:15 Sunny 57 14 48 9 72 72 NW 13 20 29.97 1015 10 16 N/A
8:35 am 08:35 Sunny 57 14 48 9 72 72 NW 15 24 29.98 1015 10 16 N/A
8:55 am 08:55 Sunny 59 15 50 10 72 72 NNW 10 17 30.00 1016 10 16 N/A
9:15 am 09:15 Sunny 59 15 48 9 68 68 NW 15 24 29.99 1016 10 16 N/A
9:35 am 09:35 Sunny 61 16 48 9 63 63 NW 13 20 30.00 1016 10 16 N/A
9:55 am 09:55 Sunny 61 16 48 9 63 63 NW 9 15 30.00 1016 10 16 N/A
10:15 am 10:15 Sunny 63 17 48 9 59 59 WNW 16 26 30.00 1016 10 16 N/A
10:35 am 10:35 Sunny 63 17 50 10 64 64 NW 9 15 30.00 1016 10 16 N/A
10:55 am 10:55 Sunny 63 17 50 10 64 64 WNW 10 17 30.00 1016 10 16 N/A
11:15 am 11:15 Sunny 64 18 50 10 60 60 NW 10 17 29.98 1015 10 16 N/A
11:35 am 11:35 Sunny 64 18 50 10 60 60 NW 13 20 29.98 1015 10 16 N/A
11:55 am 11:55 Partly Cloudy 64 18 50 10 60 60 N 6 9 29.97 1015 10 16 N/A
12:15 pm 12:15 Mostly Cloudy 64 18 50 10 60 60 NW 10 17 29.97 1015 10 16 N/A
12:35 pm 12:35 Partly Cloudy 64 18 50 10 60 60 N 7 11 29.97 1015 10 16 N/A
12:55 pm 12:55 Sunny 66 19 50 10 56 56 NW 6 9 29.96 1015 10 16 N/A
1:15 pm 13:15 Partly Cloudy 66 19 52 11 60 60 NW 6 9 29.96 1015 10 16 N/A
1:35 pm 13:35 Mostly Cloudy 66 19 52 11 60 60 WNW 6 9 29.95 1014 10 16 N/A
1:55 pm 13:55 Mostly Cloudy 68 20 50 10 53 53 NNW 7 11 29.94 1014 10 16 N/A
2:15 pm 14:15 Mostly Cloudy 66 19 52 11 60 60 NNW 13 20 29.94 1014 10 16 N/A
2:35 pm 14:35 Mostly Cloudy 68 20 50 10 53 53 NNE 7 11 29.94 1014 10 16 N/A
2:55 pm 14:55 Mostly Cloudy 68 20 52 11 56 56 NNW 6 9 29.94 1014 10 16 N/A
3:15 pm 15:15 Cloudy 68 20 50 10 53 53 NW 5 7 29.94 1014 10 16 N/A
3:35 pm 15:35 Cloudy 66 19 50 10 56 56 NNW 9 15 29.94 1014 10 16 N/A
3:55 pm 15:55 Cloudy 66 19 52 11 60 60 NNW 6 9 29.94 1014 10 16 N/A
4:15 pm 16:15 Cloudy 64 18 50 10 60 60 NNW 3 6 29.94 1014 10 16 N/A
4:35 pm 16:35 Cloudy 64 18 50 10 60 60 NNW 7 11 29.94 1014 10 16 N/A
4:55 pm 16:55 Cloudy 64 18 50 10 60 60 NNW 6 9 29.94 1014 10 16 N/A
5:15 pm 17:15 Cloudy 64 18 52 11 64 64 NNW 8 13 29.95 1014 10 16 N/A
5:35 pm 17:35 Cloudy 64 18 52 11 64 64 N 3 6 29.95 1014 10 16 N/A
5:55 pm 17:55 Cloudy 64 18 52 11 64 64 N N/A 29.94 1014 10 16 N/A
6:15 pm 18:15 Cloudy 63 17 52 11 68 68 N 6 9 29.96 1014 10 16 N/A
6:35 pm 18:35 Cloudy 63 17 50 10 64 64 NNE 5 7 29.96 1014 10 16 N/A
6:55 pm 18:55 Cloudy 63 17 50 10 64 64 NNE 3 6 29.96 1014 10 16 N/A
7:15 pm 19:15 Cloudy 63 17 52 11 68 68 N N/A 29.96 1014 10 16 N/A
7:35 pm 19:35 Cloudy 63 17 52 11 68 68 NNE 5 7 29.97 1015 10 16 N/A
7:55 pm 19:55 Cloudy 61 16 52 11 72 72 N 3 6 29.98 1015 10 16 N/A
8:15 pm 20:15 Cloudy 61 16 52 11 72 72 N N/A 29.98 1015 10 16 N/A
8:35 pm 20:35 Cloudy 61 16 52 11 72 72 N N/A 29.98 1015 10 16 N/A
8:55 pm 20:55 Cloudy 61 16 52 11 72 72 NNW 3 6 29.99 1015 10 16 N/A
9:15 pm 21:15 Cloudy 59 15 52 11 77 77 NNW 5 7 29.99 1016 10 16 N/A
9:35 pm 21:35 Cloudy 59 15 52 11 77 77 NNW 7 11 29.99 1016 10 16 N/A
9:55 pm 21:55 Cloudy 59 15 52 11 77 77 N N/A 30.00 1016 10 16 N/A
10:15 pm 22:15 Cloudy 59 15 52 11 77 77 N N/A 30.00 1016 10 16 N/A
10:35 pm 22:35 Cloudy 59 15 52 11 77 77 N N/A 30.00 1016 10 16 N/A
10:55 pm 22:55 Cloudy 59 15 52 11 77 77 N N/A 30.00 1016 10 16 N/A
11:15 pm 23:15 Cloudy 59 15 52 11 77 77 N N/A 29.98 1015 10 16 N/A
11:35 pm 23:35 Cloudy 59 15 52 11 77 77 N N/A 29.98 1015 10 16 N/A
11:55 pm 23:55 Cloudy 59 15 52 11 77 77 N N/A 29.98 1015 10 16 N/A

Powered by AerisWeather